Tracking 25744 objects as of 25-Jun-2022
HD Live streaming from Space Station
objects crossing your sky now

STARLINK-3263

Track STARLINK-3263 now!
10-day predictions
STARLINK-3263 is classified as:


NORAD ID: 50196
Int'l Code: 2021-125AS
Perigee: 545.1 km
Apogee: 548.7 km
Inclination: 53.2 °
Period: 95.4 minutes
Semi major axis: 6917 km
RCS: Unknown
Launch date: December 18, 2021
Source: United States (US)
Launch site: AIR FORCE WESTERN TEST RANGE (AFWTR)
aabbcc
Your satellite tracking list
Your tracking list is empty




NASA's NSSDC Master Catalog

Two Line Element Set (TLE):
1 50196U 21125AS  22175.34442178 -.00000646  00000-0 -22460-4 0  9998
2 50196  53.2174 199.0090 0002563  34.3004 325.8153 15.08835372 32276
Source of the keplerian elements: AFSPC